TimeMST,TemperatureF,Dew PointF,Humidity,Sea Level PressureIn,VisibilityMPH,Wind Direction,Wind SpeedMPH,Gust SpeedMPH,PrecipitationIn,Events,Conditions,WindDirDegrees,DateUTC
12:56 AM,25.0,21.0,85,30.33,-9999.0,South,11.5,-,N/A,,Unknown,170,2013-11-10 07:56:00
1:56 AM,25.0,21.0,85,30.31,-9999.0,SSE,11.5,-,N/A,,Unknown,160,2013-11-10 08:56:00
2:56 AM,25.0,21.0,85,30.29,-9999.0,South,15.0,-,N/A,,Unknown,170,2013-11-10 09:56:00
3:56 AM,26.1,21.9,84,30.27,-9999.0,South,16.1,-,N/A,,Unknown,170,2013-11-10 10:56:00
4:56 AM,27.0,23.0,85,30.26,-9999.0,South,18.4,-,N/A,,Unknown,170,2013-11-10 11:56:00
5:56 AM,28.0,23.0,81,30.24,-9999.0,South,18.4,-,N/A,,Unknown,170,2013-11-10 12:56:00
6:56 AM,28.0,24.1,85,30.22,-9999.0,South,18.4,-,N/A,,Unknown,170,2013-11-10 13:56:00
7:56 AM,30.9,26.1,82,30.22,-9999.0,South,16.1,-,N/A,,Unknown,170,2013-11-10 14:56:00
8:56 AM,36.0,28.0,73,30.20,-9999.0,South,16.1,-,N/A,,Unknown,190,2013-11-10 15:56:00
9:56 AM,37.0,28.0,70,30.20,-9999.0,SSW,8.1,-,0.01,,Unknown,210,2013-11-10 16:56:00
10:56 AM,42.1,28.9,60,30.19,-9999.0,WSW,5.8,-,N/A,,Unknown,240,2013-11-10 17:56:00
11:56 AM,48.0,28.9,48,30.16,-9999.0,NW,11.5,-,N/A,,Unknown,310,2013-11-10 18:56:00
12:56 PM,48.9,30.0,48,30.15,-9999.0,NNW,10.4,-,N/A,,Unknown,330,2013-11-10 19:56:00
1:56 PM,46.9,28.9,50,30.16,-9999.0,North,10.4,-,N/A,,Unknown,350,2013-11-10 20:56:00
2:56 PM,44.1,28.9,55,30.17,-9999.0,North,12.7,-,N/A,,Unknown,360,2013-11-10 21:56:00
3:56 PM,42.1,28.9,60,30.20,-9999.0,North,13.8,-,N/A,,Unknown,10,2013-11-10 22:56:00
4:56 PM,39.0,28.0,65,30.22,-9999.0,NNE,19.6,24.2,N/A,,Unknown,20,2013-11-10 23:56:00
5:56 PM,35.1,26.1,70,30.26,-9999.0,NNE,20.7,27.6,N/A,,Unknown,20,2013-11-11 00:56:00
6:56 PM,32.0,26.1,79,30.27,-9999.0,NNE,24.2,29.9,N/A,,Unknown,30,2013-11-11 01:56:00
7:56 PM,28.9,24.1,82,30.30,-9999.0,NNE,20.7,27.6,N/A,,Unknown,20,2013-11-11 02:56:00
8:56 PM,26.1,19.9,78,30.30,-9999.0,NNE,21.9,26.5,N/A,,Unknown,30,2013-11-11 03:56:00
9:56 PM,24.1,15.1,69,30.32,-9999.0,NE,20.7,-,N/A,,Unknown,40,2013-11-11 04:56:00
10:56 PM,21.9,9.0,58,30.36,-9999.0,NNE,19.6,-,N/A,,Unknown,30,2013-11-11 05:56:00
11:56 PM,21.0,8.1,57,30.37,-9999.0,NNE,19.6,-,N/A,,Unknown,30,2013-11-11 06:56:00